Location: Holiday Acres Laynes 2 Mobile Home Park
(26.7249°N, 81.8671°W)
Time: 13:21:08
(UTC+00:00)

IRS-1C Rocket - Pass Details

Date: 25 November 2020
Orbit: 800 x 806 km, 99.0° (Epoch: 23 January)

Event Time Altitude Azimuth Distance (km) Brightness Sun altitude
Rises 23:30:32 0° 152° (SSE) 3,304 7.2 -12.6°
Reaches altitude 10° 23:32:56 10° 146° (SSE) 2,377 6.4 -13.1°
Maximum altitude 23:37:57 47° 74° (ENE) 1,052 4.3 -14.2°
Drops below altitude 10° 23:42:59 10° 1° (N) 2,388 6.4 -15.3°
Sets 23:45:24 0° 356° (N) 3,321 7.2 -15.8°
